GALAXY 16 (G-16)

Last updated on Sat Aug 15 2026 00:02:57 GMT+0000 (Coordinated Universal Time)

1 29236U 06023A 26226.54829598 -.00000142 00000+0 00000+0 0 9997 2 29236 0.0148 156.1425 0002774 353.5990 271.5980 1.00272087 73554
UTC large
Height (km)
Speed (km/s)
/
Latitude / Longitude
Inclination (degrees)
Orbital Period (minutes)
Azimuth
Elevation
Range (km)
Doppler Factor

Next 0 passes for location: London (51.5072 / 0.1276)

No passes found over London.
GALAXY 16 (G-16)